Weather History for Baltimore, MD

Change the Weather History Date:

Friday, January 24, 2014

  Actual Average Record
Temperature  
Mean Temperature 13 °F 33 °F  
Max Temperature 20 °F 41 °F 74 °F (1967)
Min Temperature 6 °F 24 °F 1 °F (1963)
Degree Days  
Heating Degree Days 52 32  
Month to date heating degree days 863 768  
Since 1 July heating degree days 2571 2549  
Cooling Degree Days 0 0  
Month to date cooling degree days 0 0  
Year to date cooling degree days 0 0  
Moisture  
Dew Point -5 °F    
Average Humidity 46    
Maximum Humidity 60    
Minimum Humidity 31    
Precipitation  
Precipitation 0.00 in 0.10 in 1.74 in (1896)
Month to date precipitation 2.68 2.36  
Year to date precipitation 2.68 2.36  
Snow  
Snow 0.00 in 0.30 in 5.80 in (1940)
Month to date snowfall 9.3 4.9  
Since 1 July snowfall 12.2 8.3  
Snow Depth 4.00 in    
Sea Level Pressure  
Sea Level Pressure 30.38 in    
Wind  
Wind Speed 8 mph (WSW)    
Max Wind Speed 18 mph    
Max Gust Speed 24 mph    
Visibility 10 miles    
Events      
T = Trace of Precipitation, MM = Missing Value Source: NWS Daily Summary

Daily Weather History Graph

Daily Weather History Graph

Search for Another Location

Airport:

Trip Planner

Search our weather history database for the weather conditions in past years. The results will help you decide how hot, cold, wet, or windy it might be!

Date:

Astronomy

Jan. 24, 2014 Rise Set
Actual Time 7:19 AM EST 5:18 PM EST
Civil Twilight 6:51 AM EST 5:47 PM EST
Nautical Twilight 6:18 AM EST 6:19 PM EST
Astronomical Twilight 5:46 AM EST 6:51 PM EST
Moon 12:45 AM EST (1/24) 11:35 AM EST (1/24)
Length of Visible Light 10h 55m
Length of Day
9h 58m
Last Quarter, 45% of the Moon is Illuminated
Jan 24
Last Quarter
Jan 30
New
Feb 6
First Quarter
Feb 14
Full
Feb 22
Last Quarter

Hourly Weather History & Observations

Time (EST) Temp. Windchill Dew Point Humidity Pressure Visibility Wind Dir Wind Speed Gust Speed Precip Events Conditions
12:54 AM 10.9 °F -2.6 °F -4.0 °F 51% 30.43 in 10.0 mi WNW 10.4 mph - N/A   Partly Cloudy
1:54 AM 10.0 °F -5.2 °F -4.0 °F 53% 30.43 in 10.0 mi WNW 12.7 mph - N/A   Clear
2:54 AM 9.0 °F -6.6 °F -5.1 °F 53% 30.44 in 10.0 mi West 12.7 mph - N/A   Partly Cloudy
3:54 AM 9.0 °F -4.2 °F -5.1 °F 53% 30.45 in 10.0 mi West 9.2 mph - N/A   Partly Cloudy
4:54 AM 8.1 °F -3.2 °F -5.1 °F 55% 30.47 in 10.0 mi West 6.9 mph - N/A   Clear
5:54 AM 7.0 °F -3.3 °F -6.0 °F 55% 30.49 in 10.0 mi West 5.8 mph - N/A   Clear
6:54 AM 8.1 °F -2.0 °F -6.0 °F 53% 30.51 in 10.0 mi WSW 5.8 mph - N/A   Clear
7:54 AM 7.0 °F -8.3 °F -6.0 °F 55% 30.51 in 10.0 mi West 11.5 mph 19.6 mph N/A   Clear
8:54 AM 10.0 °F -5.2 °F -5.1 °F 51% 30.52 in 10.0 mi West 12.7 mph 24.2 mph N/A   Clear
9:54 AM 12.0 °F -2.7 °F -4.0 °F 49% 30.54 in 10.0 mi West 12.7 mph - N/A   Clear
10:54 AM 14.0 °F 0.5 °F -2.9 °F 47% 30.52 in 10.0 mi West 11.5 mph - N/A   Clear
11:54 AM 16.0 °F 4.4 °F -2.9 °F 43% 30.48 in 10.0 mi WSW 9.2 mph - N/A   Clear
12:54 PM 18.0 °F 7.7 °F -2.0 °F 41% 30.43 in 10.0 mi West 8.1 mph - N/A   Clear
1:54 PM 18.0 °F 7.7 °F -2.9 °F 40% 30.40 in 10.0 mi WSW 8.1 mph - N/A   Partly Cloudy
2:54 PM 19.0 °F 7.5 °F -4.0 °F 36% 30.37 in 10.0 mi WSW 10.4 mph - N/A   Partly Cloudy
3:54 PM 19.9 °F 7.9 °F -5.1 °F 33% 30.33 in 10.0 mi West 11.5 mph - N/A   Scattered Clouds
4:54 PM 19.9 °F 9.3 °F -7.1 °F 30% 30.32 in 10.0 mi SW 9.2 mph - N/A   Scattered Clouds
5:54 PM 18.0 °F 12.7 °F -5.1 °F 36% 30.30 in 10.0 mi South 3.5 mph - N/A   Scattered Clouds
6:54 PM 17.1 °F - -6.0 °F 36% 30.27 in 10.0 mi Calm Calm - N/A   Scattered Clouds
7:54 PM 16.0 °F 10.4 °F -5.1 °F 39% 30.25 in 10.0 mi South 3.5 mph - N/A   Scattered Clouds
8:54 PM 17.1 °F 8.7 °F -5.1 °F 37% 30.20 in 10.0 mi South 5.8 mph - N/A   Partly Cloudy
9:54 PM 17.1 °F 5.8 °F -4.0 °F 39% 30.17 in 10.0 mi South 9.2 mph - N/A   Scattered Clouds
10:54 PM 17.1 °F 11.7 °F -5.1 °F 37% 30.14 in 10.0 mi South 3.5 mph - N/A   Mostly Cloudy
11:54 PM 19.0 °F 10.0 °F -4.0 °F 36% 30.09 in 10.0 mi SSW 6.9 mph - N/A   Mostly Cloudy